This is the latest recevied weather packets stored in our database for station/object R2AJV-13. If no packets are shown the sender has not sent any weather packets the latest 10 day(s).
| Time | Temp. | Humidity | Pressure | Rain* | Wind** | Luminosity | Snow |
|---|---|---|---|---|---|---|---|
| 1787882418 | 6.67° C | 99% | 1012.5 hPa | 0 mm | - | - | - |
| 1787881567 | 6.67° C | 99% | 1012.4 hPa | 0 mm | - | - | - |
| 1787880662 | 6.67° C | 99% | 1012.4 hPa | 0 mm | - | - | - |
| 1787879752 | 6.67° C | 99% | 1012.4 hPa | 0 mm | - | - | - |
| 1787878878 | 7.22° C | 99% | 1012.5 hPa | 0 mm | - | - | - |
| 1787877965 | 7.22° C | 99% | 1012.3 hPa | 0 mm | - | - | - |
| 1787877055 | 7.78° C | 99% | 1012.4 hPa | 0 mm | - | - | - |
| 1787876144 | 7.78° C | 99% | 1012.3 hPa | 0 mm | - | - | - |
| 1787875232 | 7.78° C | 99% | 1012.3 hPa | 0 mm | - | - | - |
| 1787874327 | 8.33° C | 99% | 1012.1 hPa | 0 mm | - | - | - |
| 1787873416 | 8.33° C | 99% | 1012.1 hPa | 0 mm | - | - | - |
| 1787872566 | 8.89° C | 99% | 1012.1 hPa | 0 mm | - | - | - |
| 1787871656 | 8.89° C | 99% | 1012 hPa | 0 mm | - | - | - |
| 1787870745 | 9.44° C | 99% | 1012 hPa | 0 mm | - | - | - |
| 1787869839 | 9.44° C | 99% | 1012 hPa | 0 mm | - | - | - |
| 1787868928 | 10° C | 99% | 1012 hPa | 0 mm | - | - | - |
| 1787868019 | 10° C | 99% | 1011.9 hPa | 0 mm | - | - | - |
| 1787867168 | 10.56° C | 99% | 1011.8 hPa | 0 mm | - | - | - |
| 1787866263 | 10.56° C | 99% | 1011.9 hPa | 0 mm | - | - | - |
| 1787865352 | 11.11° C | 99% | 1011.8 hPa | 0 mm | - | - | - |
| 1787864475 | 11.67° C | 99% | 1011.8 hPa | 0 mm | - | - | - |
| 1787863566 | 12.22° C | 99% | 1011.8 hPa | 0 mm | - | - | - |
| 1787862654 | 12.78° C | 99% | 1011.7 hPa | 0 mm | - | - | - |
| 1787861744 | 12.78° C | 99% | 1011.7 hPa | 0 mm | - | - | - |
| 1787860839 | 13.33° C | 99% | 1011.6 hPa | 0 mm | - | - | - |
* Rain latest hour (hover to see other rain measurements)
** Current wind speed in m/s (hover to see current wind gust speed)